• In France
  • List of Countries
  • For 7 days
  • Water Temperature
  • Satellite Maps
  • Weather Map
  • Weather Widgets
  • user-avatar
    Login

    Hourly Weather Nikoia

    Today, 15 November, Thursday

    Time Temperature Precipitation Wind Pressure Humidity
    00:00 +26°C° 0 mm 4 mps 746 mmHg 84%
    01:00 +26°C° 0 mm 4 mps 746 mmHg 84%
    02:00 +26°C° 0 mm 3 mps 745 mmHg 85%
    03:00 +26°C° 0 mm 3 mps 745 mmHg 85%
    04:00 +26°C° 0 mm 4 mps 745 mmHg 85%
    05:00 +26°C° 0 mm 4 mps 746 mmHg 85%
    06:00 +26°C° 0 mm 3 mps 746 mmHg 87%
    07:00 +27°C° 0 mm 4 mps 746 mmHg 83%
    08:00 +28°C° 0 mm 5 mps 746 mmHg 79%
    09:00 +30°C° 0 mm 6 mps 747 mmHg 74%
    10:00 +30°C° 0 mm 6 mps 746 mmHg 72%
    11:00 +32°C° 0 mm 6 mps 746 mmHg 69%
    12:00 +33°C° 0 mm 6 mps 745 mmHg 67%
    13:00 +33°C° 0.1 mm 5 mps 745 mmHg 68%
    14:00 +32°C° 0.1 mm 5 mps 745 mmHg 69%
    15:00 +32°C° 0.1 mm 5 mps 744 mmHg 71%
    16:00 +30°C° 0 mm 4 mps 744 mmHg 74%
    17:00 +28°C° 0 mm 4 mps 745 mmHg 78%
    18:00 +27°C° 0 mm 3 mps 745 mmHg 82%
    19:00 +27°C° 0.1 mm 3 mps 745 mmHg 81%
    20:00 +27°C° 0.1 mm 3 mps 746 mmHg 81%
    21:00 +27°C° 0.1 mm 4 mps 746 mmHg 80%
    22:00 +27°C° 0 mm 4 mps 746 mmHg 80%
    23:00 +26°C° 0 mm 4 mps 746 mmHg 80%

    Tomorrow, 16 November, Friday

    Time Temperature Precipitation Wind Pressure Humidity
    00:00 +26°C° 0 mm 4 mps 746 mmHg 80%
    01:00 +26°C° 0 mm 4 mps 745 mmHg 80%
    02:00 +26°C° 0 mm 4 mps 745 mmHg 81%
    03:00 +26°C° 0 mm 4 mps 745 mmHg 81%
    04:00 +26°C° 0 mm 4 mps 745 mmHg 82%
    05:00 +26°C° 0 mm 4 mps 745 mmHg 82%
    06:00 +26°C° 0 mm 4 mps 745 mmHg 83%
    07:00 +27°C° 0 mm 5 mps 746 mmHg 80%
    08:00 +28°C° 0 mm 5 mps 746 mmHg 78%
    09:00 +29°C° 0 mm 5 mps 747 mmHg 75%
    10:00 +30°C° 0 mm 5 mps 746 mmHg 73%
    11:00 +32°C° 0 mm 5 mps 746 mmHg 70%
    12:00 +32°C° 0 mm 5 mps 746 mmHg 68%
    13:00 +32°C° 0 mm 4 mps 745 mmHg 68%
    14:00 +33°C° 0 mm 4 mps 744 mmHg 68%
    15:00 +33°C° 0 mm 3 mps 744 mmHg 68%
    16:00 +30°C° 0.2 mm 3 mps 744 mmHg 73%
    17:00 +29°C° 0.2 mm 2 mps 744 mmHg 78%
    18:00 +27°C° 0.2 mm 2 mps 744 mmHg 84%
    19:00 +27°C° 0 mm 2 mps 745 mmHg 84%
    20:00 +26°C° 0 mm 2 mps 745 mmHg 85%
    21:00 +26°C° 0 mm 3 mps 746 mmHg 85%
    22:00 +26°C° 0 mm 3 mps 746 mmHg 85%
    23:00 +26°C° 0 mm 3 mps 746 mmHg 86%

    Day after tomorrow, 17 November, Saturday

    Time Temperature Precipitation Wind Pressure Humidity
    00:00 +26°C° 0 mm 3 mps 745 mmHg 86%
    01:00 +26°C° 0 mm 3 mps 745 mmHg 86%
    02:00 +26°C° 0 mm 3 mps 745 mmHg 85%
    03:00 +25°C° 0 mm 3 mps 745 mmHg 85%
    04:00 +25°C° 0 mm 3 mps 745 mmHg 86%
    05:00 +25°C° 0 mm 3 mps 745 mmHg 86%
    06:00 +25°C° 0 mm 3 mps 746 mmHg 87%
    07:00 +27°C° 0 mm 3 mps 746 mmHg 82%
    08:00 +29°C° 0 mm 3 mps 747 mmHg 77%
    09:00 +30°C° 0 mm 4 mps 747 mmHg 72%
    10:00 +32°C° 0 mm 4 mps 747 mmHg 70%
    11:00 +33°C° 0 mm 4 mps 746 mmHg 67%
    12:00 +34°C° 0 mm 4 mps 746 mmHg 64%
    13:00 +33°C° 0.6 mm 3 mps 745 mmHg 66%
    14:00 +33°C° 0.6 mm 3 mps 745 mmHg 68%
    15:00 +31°C° 0.6 mm 3 mps 744 mmHg 70%
    16:00 +30°C° 0.8 mm 3 mps 744 mmHg 75%
    17:00 +29°C° 0.8 mm 2 mps 744 mmHg 80%
    18:00 +27°C° 0.8 mm 2 mps 745 mmHg 85%
    19:00 +27°C° 0 mm 2 mps 745 mmHg 86%
    20:00 +27°C° 0 mm 2 mps 746 mmHg 86%
    21:00 +26°C° 0 mm 2 mps 746 mmHg 87%
    22:00 +26°C° 0 mm 2 mps 746 mmHg 87%
    23:00 +26°C° 0 mm 2 mps 746 mmHg 87%

    18 November, Sunday

    Time Temperature Precipitation Wind Pressure Humidity
    00:00 +26°C° 0 mm 3 mps 746 mmHg 88%
    01:00 +25°C° 0 mm 3 mps 745 mmHg 88%
    02:00 +25°C° 0 mm 3 mps 745 mmHg 88%
    03:00 +25°C° 0 mm 3 mps 745 mmHg 87%
    04:00 +25°C° 0 mm 3 mps 745 mmHg 88%
    05:00 +25°C° 0 mm 3 mps 745 mmHg 88%
    06:00 +25°C° 0 mm 3 mps 745 mmHg 88%
    07:00 +27°C° 0 mm 3 mps 746 mmHg 83%
    08:00 +29°C° 0 mm 3 mps 746 mmHg 78%
    09:00 +30°C° 0 mm 4 mps 747 mmHg 73%
    10:00 +32°C° 0 mm 4 mps 746 mmHg 70%
    11:00 +33°C° 0 mm 4 mps 746 mmHg 68%
    12:00 +34°C° 0 mm 4 mps 746 mmHg 65%
    13:00 +33°C° 0.1 mm 4 mps 745 mmHg 66%
    14:00 +33°C° 0.1 mm 4 mps 744 mmHg 66%
    15:00 +33°C° 0.1 mm 3 mps 743 mmHg 67%
    16:00 +30°C° 0.2 mm 3 mps 744 mmHg 72%
    17:00 +29°C° 0.2 mm 3 mps 744 mmHg 77%
    18:00 +27°C° 0.2 mm 2 mps 744 mmHg 82%
    19:00 +27°C° 0 mm 2 mps 745 mmHg 83%
    20:00 +27°C° 0 mm 3 mps 745 mmHg 84%
    21:00 +26°C° 0 mm 3 mps 746 mmHg 84%
    22:00 +26°C° 0 mm 3 mps 746 mmHg 85%
    23:00 +26°C° 0 mm 3 mps 746 mmHg 85%

    19 November, Monday

    Time Temperature Precipitation Wind Pressure Humidity
    00:00 +26°C° 0 mm 3 mps 745 mmHg 86%
    01:00 +26°C° 0 mm 3 mps 745 mmHg 86%
    02:00 +25°C° 0 mm 3 mps 745 mmHg 87%
    03:00 +25°C° 0 mm 3 mps 744 mmHg 87%
    04:00 +25°C° 0 mm 3 mps 745 mmHg 87%
    05:00 +25°C° 0 mm 3 mps 745 mmHg 87%
    06:00 +25°C° 0 mm 3 mps 745 mmHg 87%
    07:00 +27°C° 0 mm 3 mps 746 mmHg 82%
    08:00 +29°C° 0 mm 4 mps 746 mmHg 77%
    09:00 +30°C° 0 mm 4 mps 747 mmHg 72%
    10:00 +32°C° 0 mm 4 mps 746 mmHg 68%
    11:00 +33°C° 0 mm 3 mps 745 mmHg 65%
    12:00 +34°C° 0 mm 3 mps 745 mmHg 62%
    13:00 +34°C° 0.8 mm 3 mps 744 mmHg 65%
    14:00 +33°C° 0.8 mm 3 mps 744 mmHg 68%
    15:00 +31°C° 0.8 mm 3 mps 743 mmHg 71%
    16:00 +30°C° 0.9 mm 2 mps 744 mmHg 76%
    17:00 +29°C° 0.9 mm 2 mps 744 mmHg 81%
    18:00 +27°C° 0.9 mm 2 mps 744 mmHg 85%
    19:00 +27°C° 0 mm 2 mps 745 mmHg 86%
    20:00 +27°C° 0 mm 2 mps 746 mmHg 86%
    21:00 +27°C° 0 mm 2 mps 746 mmHg 86%
    22:00 +26°C° 0 mm 2 mps 746 mmHg 86%
    23:00 +26°C° 0 mm 2 mps 746 mmHg 86%

    20 November, Tuesday

    Time Temperature Precipitation Wind Pressure Humidity
    00:00 +26°C° 0 mm 2 mps 745 mmHg 87%
    01:00 +26°C° 0.1 mm 2 mps 745 mmHg 86%
    02:00 +26°C° 0.1 mm 3 mps 744 mmHg 86%
    03:00 +26°C° 0.1 mm 3 mps 744 mmHg 86%
    04:00 +26°C° 0 mm 3 mps 744 mmHg 86%
    05:00 +26°C° 0 mm 3 mps 745 mmHg 85%
    06:00 +26°C° 0 mm 3 mps 745 mmHg 85%
    07:00 +27°C° 0 mm 3 mps 746 mmHg 82%
    08:00 +28°C° 0 mm 4 mps 746 mmHg 79%
    09:00 +29°C° 0 mm 4 mps 747 mmHg 76%
    10:00 +30°C° 0 mm 4 mps 746 mmHg 72%
    11:00 +32°C° 0 mm 4 mps 745 mmHg 68%
    12:00 +33°C° 0 mm 3 mps 745 mmHg 65%
    13:00 +33°C° 0.3 mm 3 mps 744 mmHg 66%
    14:00 +33°C° 0.3 mm 3 mps 744 mmHg 67%
    15:00 +33°C° 0.3 mm 3 mps 743 mmHg 69%
    16:00 +30°C° 0.6 mm 3 mps 744 mmHg 73%
    17:00 +29°C° 0.6 mm 2 mps 745 mmHg 78%
    18:00 +28°C° 0.6 mm 2 mps 745 mmHg 82%
    19:00 +27°C° 0 mm 2 mps 746 mmHg 82%
    20:00 +27°C° 0 mm 3 mps 746 mmHg 82%
    21:00 +27°C° 0 mm 3 mps 747 mmHg 82%
    22:00 +26°C° 0.1 mm 3 mps 746 mmHg 82%
    23:00 +26°C° 0.1 mm 3 mps 746 mmHg 82%
    Show more